Printer-friendly version

IAU Minor Planet Center

Minor Planet Center

MPEC 2006-S22 : 2006 RO36

The following Minor Planet Electronic Circular may be linked-to from your own Web pages, but must not otherwise be redistributed electronically.


Read MPEC 2006-S21 Read MPEC 2006-S23


M.P.E.C. 2006-S22                                Issued 2006 Sept. 19, 10:44 UT

     The Minor Planet Electronic Circulars contain information on unusual
         minor planets and routine data on comets.  They are published
   on behalf of Commission 20 of the International Astronomical Union by the
          Minor Planet Center, Smithsonian Astrophysical Observatory,
                          Cambridge, MA 02138, U.S.A.

                  Supported in part by the Brinson Foundation
                  Supported in part by the TABASGO Foundation
             Prepared using the Tamkin Foundation Computer Network

                              MPC@CFA.HARVARD.EDU
          URL http://cfa-www.harvard.edu/iau/mpc.html  ISSN 1523-6714

                                   2006 RO36

Observations:
     K06R36O* C2006 09 15.10907 16 44 31.25 +10 28 06.3          18.5   ES022704
     K06R36O  C2006 09 15.12100 16 44 33.64 +10 28 07.7          19.6   ES022704
     K06R36O  C2006 09 15.13294 16 44 36.07 +10 28 09.1          18.6   ES022704
     K06R36O  C2006 09 18.10764 16 54 41.31 +10 36 20.3          18.8   ES022704
     K06R36O  C2006 09 18.11938 16 54 43.71 +10 36 21.2          19.2   ES022704
     K06R36O  C2006 09 18.13115 16 54 45.99 +10 36 22.0          19.4   ES022704
     K06R36O  C2006 09 18.14296 16 54 48.34 +10 36 23.0          19.9   ES022704
     K06R36O  C2006 09 18.15481 16 54 50.58 +10 36 25.7          19.9   ES022704
     K06R36O  C2006 09 19.09171 16 57 58.35 +10 38 39.8          19.4 R ES022448
     K06R36O  C2006 09 19.09703 16 57 59.36 +10 38 41.4          19.2 R ES022448
     K06R36O  C2006 09 19.10235 16 58 00.42 +10 38 41.8          19.0 R ES022448
     K06R36O  C2006 09 19.10722 16 58 01.33 +10 38 40.7          19.2 R ES022734
     K06R36O  C2006 09 19.10865 16 58 01.70 +10 38 42.2          19.2 V ES022703
     K06R36O  C2006 09 19.11015 16 58 01.80 +10 38 40.4          19.4 R ES022734
     K06R36O  C2006 09 19.12034 16 58 03.94 +10 38 44.7          19.3 V ES022703
     K06R36O 5C2006 09 19.12106 16 58 04.14 +10 38 44.3          19.2 R ES022673
     K06R36O  C2006 09 19.12618 16 58 05.07 +10 38 44.9          19.4 V ES022703
     K06R36O 5C2006 09 19.12905 16 58 05.79 +10 38 45.3                 ES022673
     K06R36O 5C2006 09 19.13669 16 58 07.22 +10 38 46.2                 ES022673
     K06R36O 5C2006 09 19.14074 16 58 08.04 +10 38 46.7                 ES022673
     K06R36O  C2006 09 19.17149 16 58 13.97 +10 38 51.2          19.4 R ES022651
     K06R36O  C2006 09 19.17260 16 58 14.21 +10 38 51.4          19.4 R ES022651
     K06R36O  C2006 09 19.17371 16 58 14.40 +10 38 51.1          19.4 R ES022651

Observer details:
448 Desert Moon Observatory.  Observer B. L. Stevens.  0.3-m
    Schmidt-Cassegrain + CCD.
651 Grasslands Observatory, Tucson.  Observer J. E. McGaha.  0.62-m f/5.1
    Newtonian reflector + CCD.
673 Table Mountain Observatory, Wrightwood.  Observer J. Young.  0.61-m f/16
    Cassegrain + CCD.
703 Catalina Sky Survey.  Observer A. R. Gibbs.  Measurers E. C. Beshore,
    E. J. Christensen, G. J. Garradd, A. R. Gibbs, A. D. Grauer, R. E. Hill,
    R. A. Kowalski, S. M. Larson, R. H. McNaught.  0.68-m Schmidt + CCD.
704 Lincoln Laboratory ETS, New Mexico.  Observers M. Bezpalko, L. Manguso,
    D. Torres, R. Kracke, H. Love, G. Spitz, J. Kistler.  Measurers J. Stuart,
    J. Kommers.  1.0-m f/2.15 reflector + CCD.
734 Farpoint Observatory.  Observer G. Hug.  0.7-m reflector + CCD.

Orbital elements:
2006 RO36                                                Earth MOID = 0.1112 AU
Epoch 2006 Sept. 22.0 TT = JDT 2454000.5                MPC
M 144.66535              (2000.0)            P               Q
n   1.14122439     Peri.  261.24054     -0.90705224     -0.12428719
a   0.9068915      Node   270.87633     +0.28516705     -0.88426133
e   0.2278411      Incl.   23.72216     -0.30973536     -0.45014953
P   0.86           H   17.8           G   0.15           U   9
Residuals in seconds of arc
060915 704  0.2+  0.6+    060919 448  0.4+  0.6-    060919 703  0.4-  0.1-
060915 704  0.2-  0.1-    060919 448  0.0   0.3+    060919 673  0.7+  0.2+
060915 704  0.0   0.8-    060919 448  0.3+  0.0     060919 673  0.3-  0.1+
060918 704  0.5-  1.4+    060919 734  0.7+  0.2-    060919 673  0.1+  0.0
060918 704  0.8+  0.6+    060919 703  0.4+  0.5-    060919 651  0.0   0.2+
060918 704  0.2+  0.2-    060919 734  0.9-  0.9-    060919 651  0.3+  0.3+
060918 704  0.4+  0.8-    060919 703  0.3-  0.4+    060919 651  0.1-  0.2-
060918 704  1.1-  0.2+    060919 673  0.7-  0.2+

Ephemeris:
2006 RO36                a,e,i = 0.91, 0.23, 24                  q = 0.7003
Date    TT    R. A. (2000) Decl.     Delta      r     Elong.  Phase     V
2006 09 12    16 33.68   +10 17.8    0.625    1.068    77.9    67.1    19.3
2006 09 22    17 07.53   +10 44.8    0.673    1.088    78.1    64.6    19.4
2006 10 02    17 39.14   +10 57.4    0.717    1.102    77.8    62.7    19.5
2006 10 12    18 09.48   +11 01.2    0.756    1.110    77.2    61.2    19.6
2006 10 22    18 39.32   +10 59.9    0.789    1.113    76.2    60.3    19.7
2006 11 01    19 09.25   +10 56.8    0.817    1.111    75.1    59.7    19.7
2006 11 11    19 39.62   +10 53.8    0.838    1.104    73.8    59.5    19.8
2006 11 21    20 10.74   +10 51.4    0.853    1.091    72.3    59.6    19.8
2006 12 01    20 42.84   +10 49.7    0.861    1.072    70.6    60.1    19.8
2006 12 11    21 16.01   +10 47.0    0.864    1.049    68.8    61.1    19.8
2006 12 21    21 50.36   +10 40.1    0.860    1.021    66.8    62.4    19.7
2006 12 31    22 25.88   +10 24.7    0.851    0.988    64.7    64.1    19.7
2007 01 10    23 02.42   +09 54.2    0.836    0.952    62.5    66.4    19.6
2007 01 20    23 39.73   +09 00.6    0.815    0.912    60.1    69.2    19.6

Timothy B. Spahr             (C) Copyright 2006 MPC           M.P.E.C. 2006-S22

Read MPEC 2006-S21 Read MPEC 2006-S23


Our Web policy. Index to the CBAT/MPC/ICQ pages.


Valid HTML 4.01!